Regional Weather Roundup
Issued by NWS

Home | Current Version | Previous Version | Graphics & Text | Print | Product List | Glossary On
Versions: 1 2 3 4 5 6 7 8 9 10 11 12 13 14 15 16 17 18 19 20 21 22 23 24 25 26 27 28 29 30 31 32 33 34 35 36 37 38 39 40 41 42 43 44 45 46 47 48 49 50
000
ASUS43 KTOP 271308
RWRKS

WEATHER ROUNDUP FOR KANSAS
NATIONAL WEATHER SERVICE GOODLAND KS
700 AM CST TUE JAN 27 2015

NOTE:  "FAIR" INDICATES FEW OR NO CLOUDS BELOW 12,000 FEET WITH NO
SIGNIFICANT WEATHER AND/OR OBSTRUCTIONS TO VISIBILITY.

KSZ001>006-013>018-027>032-041>047-271400-
NORTHWEST KANSAS

CITY           SKY/WX    TMP DP  RH WIND       PRES   REMARKS
GOODLAND       CLEAR     45  28  51 W14       30.09S
HAYS           CLEAR     30  19  64 SW6       30.07F
HILL CITY      CLEAR     30  25  81 SW3       30.07S
RUSSELL        CLEAR     33  29  85 SW9       30.06S
$$

KSZ061>065-074>080-084>089-271400-
SOUTHWEST KANSAS

CITY           SKY/WX    TMP DP  RH WIND       PRES   REMARKS
DODGE CITY     CLEAR     39  29  67 W9        30.12S
ELKHART          N/A     44  28  53 W9          N/A
GARDEN CITY    PTCLDY    33  29  85 W10       30.12R WCI  25
GREAT BEND     CLEAR     34  27  75 SW5       30.10S
LIBERAL        PTCLDY    36  27  69 NW8       30.16S
PRATT          CLEAR     34  30  86 W7        30.12R
$$

KSZ066>073-081>083-090>101-271400-
SOUTHEAST KANSAS

CITY           SKY/WX    TMP DP  RH WIND       PRES   REMARKS
CHANUTE        CLEAR     31  28  89 CALM      30.14R
COFFEYVILLE    CLEAR     33  31  92 N5        30.14R
HUTCHINSON     CLEAR     35  28  75 W5        30.11R
MEDICINE LODGE   N/A     36  30  79 N5        30.11R
NEWTON         CLEAR     39  28  65 E6        30.13R
PARSONS        CLEAR     29  27  92 CALM      30.14R
WICHITA INTL   CLEAR     34  28  79 CALM      30.11R
WICHITA JABRA  CLEAR     34  30  85 SE3       30.11R
WICHITA MCCONL CLEAR     39  32  75 CALM      30.12R
WINFIELD       CLEAR     33  28  81 CALM      30.13R
$$

KSZ007>012-019>026-033>040-048>060-102>105-271400-
NORTHEAST KANSAS

CITY           SKY/WX    TMP DP  RH WIND       PRES   REMARKS
CONCORDIA      PTCLDY    33  28  81 SE3       30.08S
EMPORIA        CLEAR     33  28  81 N3        30.11R
LAWRENCE       CLEAR     24  22  91 NW9       30.14R
MANHATTAN      CLEAR     26  23  88 CALM      30.12R
MARYSVILLE     PTCLDY    27  23  86 CALM      30.10S
OLATHE IND     CLEAR     32  29  88 NW5       30.13R
OLATHE EXE     CLEAR     33  29  85 CALM      30.11R
SALINA         CLEAR     31  26  82 SE5       30.10S
TOPEKA BILLARD CLEAR     28  24  85 CALM      30.14R
TOPEKA FORBES  CLEAR     28  24  85 S5        30.13R
$$



USA.gov is the U.S. government's official web portal to all federal, state and local government web resources and services.